Content
SEND FEEDBACK

Daily
Averages
Monthly
Summary
United States of America

SEDGWICK, COLORADO


Home > North America > United States > Colorado
Elevation: 3965 feet     Latitude: 40 51N     Longitude: 102 31W

WEATHER
 
SELECT A DAY
Number of Records: 185,753;   Date Range: 1/1/95 - 11/22/14
 
SHARE

PRINT THIS DATA

[ ← Previous Day ]
WEATHER ALMANAC - JANUARY 31, 2013
[ Next Day → ]
[ °C ]   °F
Weather ElementAverageHighLow
Temperature26 °F30.9 °F (1:53 am)19.4 °F (10:00 am)
Dewpoint15.5 °F23 °F (1:53 am)8.1 °F (10:53 am)
Humidity65 %80 % (8:09 am)51 % (2:53 pm)
Barometer30.20 in30.33 in (8:53 pm)29.98 in (2:53 am)
Wind Speed10 mph16.1 mph (7:53 am)
Wind Gust20.7 mph (7:53 am)
Weather ElementAverage
Visibility10 mi
Wind DirectionSSW (205 °)

Weather ElementTotal
Precipitation---
Heating Degree Days39.9 (Base 65)
Averaged from 26 records on January 31, 2013
WEATHER CONDITIONS BREAKOUT
WIND DIRECTION BREAKOUT
WEATHER BY HOUR - JANUARY 31, 2013
[ °C ]   °F
Local TimeTemperatureDewpointHumidityBarometerVisibilityWind DirectionWind SpeedGust SpeedPrecipitationEventsConditions
1:53 AM30.9 °F23.0 °F72 %29.99 in10.0 miWNW (300°)10.4 mphOvercast
2:53 AM30.9 °F21.9 °F69 %29.98 in10.0 miNW (310°)10.4 mphOvercast
3:53 AM30.0 °F21.0 °F69 %30.00 in10.0 miNW (320°)12.7 mphMostly Cloudy
4:53 AM30.0 °F19.9 °F66 %30.02 in10.0 miNW (320°)10.4 mphOvercast
5:53 AM28.9 °F21.0 °F72 %30.06 in10.0 miWNW (300°)6.9 mphOvercast
6:53 AM28.9 °F21.0 °F72 %30.10 in10.0 miNW (310°)8.1 mphOvercast
7:53 AM28.9 °F19.0 °F67 %30.14 in10.0 miNW (320°)16.1 mph20.7 mphMostly Cloudy
8:09 AM24.8 °F19.4 °F80 %30.08 in10.0 miNE (50°)15.0 mphOvercast
8:21 AM24.8 °F17.6 °F74 %30.09 in10.0 miNNE (30°)11.5 mphOvercast
8:53 AM21.9 °F16.0 °F78 %30.23 in10.0 miNNE (30°)15.0 mphOvercast
9:53 AM21.0 °F12.0 °F68 %30.29 in10.0 miNorth (10°)11.5 mph19.6 mph0.00 inOvercast
10:00 AM19.4 °F10.4 °F68 %30.19 in10.0 miNNE (30°)15.0 mphOvercast
10:53 AM21.0 °F8.1 °F57 %30.32 in10.0 miNorth (10°)12.7 mphOvercast
11:53 AM21.9 °F9.0 °F58 %30.32 in10.0 miNorth (10°)12.7 mphOvercast
12:53 PM23.0 °F9.0 °F55 %30.31 in10.0 miVariable3.5 mphOvercast
1:53 PM25.0 °F10.9 °F55 %30.29 in10.0 miNNW (340°)10.4 mphScattered Clouds
2:53 PM27.0 °F10.9 °F51 %30.28 in10.0 miNorth (350°)10.4 mph17.3 mphClear
3:53 PM26.1 °F12.0 °F55 %30.28 in10.0 miNW (320°)10.4 mphMostly Cloudy
4:53 PM26.1 °F12.9 °F58 %30.26 in10.0 miNorth (350°)4.6 mphOvercast
5:53 PM26.1 °F12.9 °F58 %30.29 in10.0 miWest (270°)4.6 mphOvercast
6:53 PM26.1 °F12.9 °F58 %30.30 in10.0 miWest (270°)3.5 mphOvercast
7:53 PM26.1 °F15.1 °F63 %30.31 in10.0 miSSW (210°)5.8 mphOvercast
8:53 PM27.0 °F18.0 °F69 %30.33 in10.0 miSW (230°)9.2 mphOvercast
9:53 PM27.0 °F16.0 °F63 %30.32 in10.0 miSW (220°)10.4 mphOvercast
10:53 PM26.1 °F16.0 °F66 %30.32 in10.0 miSSW (200°)8.1 mphOvercast
11:53 PM26.6 °F17.6 °F69 %30.19 in10.0 miSW (220°)10.4 mphOvercast
Hourly data recorded from KHEQ, located miles away from Sedgwick, Colorado







STORIES FROM OUR PARTNERS